Year,Month,Day,Hour,Minute,Value (Times are PST for temperature in C)
2011,04,28,00,00,3.80
2011,04,28,00,01,3.80
2011,04,28,00,02,3.80
2011,04,28,00,03,3.80
2011,04,28,00,04,3.80
2011,04,28,00,05,3.70
2011,04,28,00,06,3.70
2011,04,28,00,07,3.70
2011,04,28,00,08,3.70
2011,04,28,00,09,3.80
2011,04,28,00,10,3.80
2011,04,28,00,11,3.80
2011,04,28,00,12,3.80
2011,04,28,00,13,3.80
2011,04,28,00,14,3.80
2011,04,28,00,15,3.80
2011,04,28,00,16,3.80
2011,04,28,00,17,3.80
2011,04,28,00,18,3.80
2011,04,28,00,19,3.80
2011,04,28,00,20,3.80
2011,04,28,00,21,3.80
2011,04,28,00,22,3.80
2011,04,28,00,23,3.80
2011,04,28,00,24,3.80
2011,04,28,00,25,3.80
2011,04,28,00,26,3.80
2011,04,28,00,27,3.80
2011,04,28,00,28,3.70
2011,04,28,00,29,3.70
2011,04,28,00,30,3.70
2011,04,28,00,31,3.70
2011,04,28,00,32,3.70
2011,04,28,00,33,3.70
2011,04,28,00,34,3.70
2011,04,28,00,35,3.70
2011,04,28,00,36,3.70
2011,04,28,00,37,3.60
2011,04,28,00,38,3.60
2011,04,28,00,39,3.60
2011,04,28,00,40,3.50
2011,04,28,00,41,3.50
2011,04,28,00,42,3.50
2011,04,28,00,43,3.50
2011,04,28,00,44,3.50
2011,04,28,00,45,3.50
2011,04,28,00,46,3.40
2011,04,28,00,47,3.40
2011,04,28,00,48,3.40
2011,04,28,00,49,3.40
2011,04,28,00,50,3.40
2011,04,28,00,51,3.40
2011,04,28,00,52,3.40
2011,04,28,00,53,3.40
2011,04,28,00,54,3.40
2011,04,28,00,55,3.40
2011,04,28,00,56,3.50
2011,04,28,00,57,3.50
2011,04,28,00,58,3.60
2011,04,28,00,59,3.60
2011,04,28,01,00,3.70
2011,04,28,01,01,3.70
2011,04,28,01,02,3.70
2011,04,28,01,03,3.70
2011,04,28,01,04,3.70
2011,04,28,01,05,3.70
2011,04,28,01,06,3.70
2011,04,28,01,07,3.80
2011,04,28,01,08,3.80
2011,04,28,01,09,3.80
2011,04,28,01,10,3.80
2011,04,28,01,11,3.80
2011,04,28,01,12,3.80
2011,04,28,01,13,3.80
2011,04,28,01,14,3.80
2011,04,28,01,15,3.80
2011,04,28,01,16,3.80
2011,04,28,01,17,3.80
2011,04,28,01,18,3.80
2011,04,28,01,19,3.80
2011,04,28,01,20,3.80
2011,04,28,01,21,3.80
2011,04,28,01,22,3.80
2011,04,28,01,23,3.80
2011,04,28,01,24,3.80
2011,04,28,01,25,3.80
2011,04,28,01,26,3.80
2011,04,28,01,27,3.80
2011,04,28,01,28,3.80
2011,04,28,01,29,3.80
2011,04,28,01,30,3.80
2011,04,28,01,31,3.80
2011,04,28,01,32,3.80
2011,04,28,01,33,3.80
2011,04,28,01,34,3.80
2011,04,28,01,35,3.80
2011,04,28,01,36,3.70
2011,04,28,01,37,3.70
2011,04,28,01,38,3.70
2011,04,28,01,39,3.70
2011,04,28,01,40,3.70
2011,04,28,01,41,3.70
2011,04,28,01,42,3.70
2011,04,28,01,43,3.70
2011,04,28,01,44,3.70
2011,04,28,01,45,3.70
2011,04,28,01,46,3.70
2011,04,28,01,47,3.70
2011,04,28,01,48,3.70
2011,04,28,01,49,3.70
2011,04,28,01,50,3.70
2011,04,28,01,51,3.70
2011,04,28,01,52,3.70
2011,04,28,01,53,3.70
2011,04,28,01,54,3.70
2011,04,28,01,55,3.80
2011,04,28,01,56,3.70
2011,04,28,01,57,3.80
2011,04,28,01,58,3.70
2011,04,28,01,59,3.70
2011,04,28,02,00,3.80
2011,04,28,02,01,3.70
2011,04,28,02,02,3.70
2011,04,28,02,03,3.70
2011,04,28,02,04,3.70
2011,04,28,02,05,3.70
2011,04,28,02,06,3.60
2011,04,28,02,07,3.60
2011,04,28,02,08,3.60
2011,04,28,02,09,3.60
2011,04,28,02,10,3.60
2011,04,28,02,11,3.60
2011,04,28,02,12,3.60
2011,04,28,02,13,3.60
2011,04,28,02,14,3.60
2011,04,28,02,15,3.60
2011,04,28,02,16,3.60
2011,04,28,02,17,3.60
2011,04,28,02,18,3.60
2011,04,28,02,19,3.60
2011,04,28,02,20,3.60
2011,04,28,02,21,3.60
2011,04,28,02,22,3.60
2011,04,28,02,23,3.70
2011,04,28,02,24,3.70
2011,04,28,02,25,3.70
2011,04,28,02,26,3.70
2011,04,28,02,27,3.70
2011,04,28,02,28,3.80
2011,04,28,02,29,3.80
2011,04,28,02,30,3.80
2011,04,28,02,31,3.90
2011,04,28,02,32,3.90
2011,04,28,02,33,3.90
2011,04,28,02,34,4.00
2011,04,28,02,35,4.00
2011,04,28,02,36,4.10
2011,04,28,02,37,4.10
2011,04,28,02,38,4.20
2011,04,28,02,39,4.20
2011,04,28,02,40,4.30
2011,04,28,02,41,4.30
2011,04,28,02,42,4.30
2011,04,28,02,43,4.40
2011,04,28,02,44,4.40
2011,04,28,02,45,4.40
2011,04,28,02,46,4.50
2011,04,28,02,47,4.50
2011,04,28,02,48,4.60
2011,04,28,02,49,4.60
2011,04,28,02,50,4.60
2011,04,28,02,51,4.70
2011,04,28,02,52,4.80
2011,04,28,02,53,4.90
2011,04,28,02,54,5.00
2011,04,28,02,55,5.10
2011,04,28,02,56,5.20
2011,04,28,02,57,5.20
2011,04,28,02,58,5.30
2011,04,28,02,59,5.40
2011,04,28,03,00,5.40
2011,04,28,03,01,5.30
2011,04,28,03,02,5.30
2011,04,28,03,03,5.30
2011,04,28,03,04,5.30
2011,04,28,03,05,5.20
2011,04,28,03,06,5.10
2011,04,28,03,07,5.10
2011,04,28,03,08,5.00
2011,04,28,03,09,4.90
2011,04,28,03,10,4.90
2011,04,28,03,11,4.90
2011,04,28,03,12,4.90
2011,04,28,03,13,4.90
2011,04,28,03,14,4.90
2011,04,28,03,15,5.00
2011,04,28,03,16,5.10
2011,04,28,03,17,5.10
2011,04,28,03,18,5.20
2011,04,28,03,19,5.20
2011,04,28,03,20,5.20
2011,04,28,03,21,5.20
2011,04,28,03,22,5.20
2011,04,28,03,23,5.20
2011,04,28,03,24,5.20
2011,04,28,03,25,5.20
2011,04,28,03,26,5.20
2011,04,28,03,27,5.20
2011,04,28,03,28,5.20
2011,04,28,03,29,5.20
2011,04,28,03,30,5.20
2011,04,28,03,31,5.20
2011,04,28,03,32,5.20
2011,04,28,03,33,5.20
2011,04,28,03,34,5.20
2011,04,28,03,35,5.20
2011,04,28,03,36,5.20
2011,04,28,03,37,5.20
2011,04,28,03,38,5.20
2011,04,28,03,39,5.20
2011,04,28,03,40,5.20
2011,04,28,03,41,5.20
2011,04,28,03,42,5.20
2011,04,28,03,43,5.30
2011,04,28,03,44,5.30
2011,04,28,03,45,5.30
2011,04,28,03,46,5.40
2011,04,28,03,47,5.40
2011,04,28,03,48,5.50
2011,04,28,03,49,5.60
2011,04,28,03,50,5.70
2011,04,28,03,51,5.70
2011,04,28,03,52,5.80
2011,04,28,03,53,5.80
2011,04,28,03,54,5.80
2011,04,28,03,55,5.80
2011,04,28,03,56,5.90
2011,04,28,03,57,5.90
2011,04,28,03,58,5.90
2011,04,28,03,59,5.90
2011,04,28,04,00,5.90
2011,04,28,04,01,5.90
2011,04,28,04,02,5.90
2011,04,28,04,03,5.90
2011,04,28,04,04,5.80
2011,04,28,04,05,5.80
2011,04,28,04,06,5.80
2011,04,28,04,07,5.80
2011,04,28,04,08,5.80
2011,04,28,04,09,5.80
2011,04,28,04,10,5.80
2011,04,28,04,11,5.80
2011,04,28,04,12,5.80
2011,04,28,04,13,5.90
2011,04,28,04,14,5.90
2011,04,28,04,15,6.00
2011,04,28,04,16,6.00
2011,04,28,04,17,6.10
2011,04,28,04,18,6.10
2011,04,28,04,19,6.10
2011,04,28,04,20,6.10
2011,04,28,04,21,6.20
2011,04,28,04,22,6.20
2011,04,28,04,23,6.20
2011,04,28,04,24,6.20
2011,04,28,04,25,6.20
2011,04,28,04,26,6.20
2011,04,28,04,27,6.20
2011,04,28,04,28,6.20
2011,04,28,04,29,6.20
2011,04,28,04,30,6.20
2011,04,28,04,31,6.30
2011,04,28,04,32,6.30
2011,04,28,04,33,6.30
2011,04,28,04,34,6.30
2011,04,28,04,35,6.30
2011,04,28,04,36,6.30
2011,04,28,04,37,6.30
2011,04,28,04,38,6.30
2011,04,28,04,39,6.40
2011,04,28,04,40,6.40
2011,04,28,04,41,6.40
2011,04,28,04,42,6.40
2011,04,28,04,43,6.40
2011,04,28,04,44,6.40
2011,04,28,04,45,6.40
2011,04,28,04,46,6.40
2011,04,28,04,47,6.40
2011,04,28,04,48,6.40
2011,04,28,04,49,6.40
2011,04,28,04,50,6.50
2011,04,28,04,51,6.50
2011,04,28,04,52,6.50
2011,04,28,04,53,6.60
2011,04,28,04,54,6.60
2011,04,28,04,55,6.60
2011,04,28,04,56,6.60
2011,04,28,04,57,6.60
2011,04,28,04,58,6.50
2011,04,28,04,59,6.40
2011,04,28,05,00,6.40
2011,04,28,05,01,6.30
2011,04,28,05,02,6.20
2011,04,28,05,03,6.20
2011,04,28,05,04,6.20
2011,04,28,05,05,6.20
2011,04,28,05,06,6.20
2011,04,28,05,07,6.20
2011,04,28,05,08,6.10
2011,04,28,05,09,6.10
2011,04,28,05,10,6.10
2011,04,28,05,11,6.00
2011,04,28,05,12,6.00
2011,04,28,05,13,6.00
2011,04,28,05,14,5.90
2011,04,28,05,15,5.90
2011,04,28,05,16,5.90
2011,04,28,05,17,5.90
2011,04,28,05,18,5.90
2011,04,28,05,19,5.90
2011,04,28,05,20,5.90
2011,04,28,05,21,5.90
2011,04,28,05,22,5.90
2011,04,28,05,23,5.90
2011,04,28,05,24,5.90
2011,04,28,05,25,5.90
2011,04,28,05,26,5.90
2011,04,28,05,27,5.80
2011,04,28,05,28,5.80
2011,04,28,05,29,5.80
2011,04,28,05,30,5.80
2011,04,28,05,31,5.80
2011,04,28,05,32,5.80
2011,04,28,05,33,5.80
2011,04,28,05,34,5.80
2011,04,28,05,35,5.80
2011,04,28,05,36,5.80
2011,04,28,05,37,5.80
2011,04,28,05,38,5.80
2011,04,28,05,39,5.80
2011,04,28,05,40,5.80
2011,04,28,05,41,5.80
2011,04,28,05,42,5.80
2011,04,28,05,43,5.80
2011,04,28,05,44,5.80
2011,04,28,05,45,5.80
2011,04,28,05,46,5.80
2011,04,28,05,47,5.90
2011,04,28,05,48,5.90
2011,04,28,05,49,5.90
2011,04,28,05,50,5.90
2011,04,28,05,51,6.00
2011,04,28,05,52,6.00
2011,04,28,05,53,6.10
2011,04,28,05,54,6.10
2011,04,28,05,55,6.20
2011,04,28,05,56,6.20
2011,04,28,05,57,6.20
2011,04,28,05,58,6.20
2011,04,28,05,59,6.20
2011,04,28,06,00,6.30
2011,04,28,06,01,6.30
2011,04,28,06,02,6.30
2011,04,28,06,03,6.30
2011,04,28,06,04,6.30
2011,04,28,06,05,6.30
2011,04,28,06,06,6.30
2011,04,28,06,07,6.30
2011,04,28,06,08,6.30
2011,04,28,06,09,6.30
2011,04,28,06,10,6.30
2011,04,28,06,11,6.30
2011,04,28,06,12,6.30
2011,04,28,06,13,6.30
2011,04,28,06,14,6.30
2011,04,28,06,15,6.30
2011,04,28,06,16,6.30
2011,04,28,06,17,6.30
2011,04,28,06,18,6.30
2011,04,28,06,19,6.30
2011,04,28,06,20,6.40
2011,04,28,06,21,6.40
2011,04,28,06,22,6.40
2011,04,28,06,23,6.40
2011,04,28,06,24,6.50
2011,04,28,06,25,6.50
2011,04,28,06,26,6.50
2011,04,28,06,27,6.50
2011,04,28,06,28,6.50
2011,04,28,06,29,6.60
2011,04,28,06,30,6.60
2011,04,28,06,31,6.60
2011,04,28,06,32,6.60
2011,04,28,06,33,6.50
2011,04,28,06,34,6.40
2011,04,28,06,35,6.20
2011,04,28,06,36,6.00
2011,04,28,06,37,5.90
2011,04,28,06,38,5.80
2011,04,28,06,39,5.70
2011,04,28,06,40,5.60
2011,04,28,06,41,5.60
2011,04,28,06,42,5.60
2011,04,28,06,43,5.60
2011,04,28,06,44,5.60
2011,04,28,06,45,5.60
2011,04,28,06,46,5.60
2011,04,28,06,47,5.60
2011,04,28,06,48,5.60
2011,04,28,06,49,5.60
2011,04,28,06,50,5.70
2011,04,28,06,51,5.70
2011,04,28,06,52,5.70
2011,04,28,06,53,5.70
2011,04,28,06,54,5.80
2011,04,28,06,55,5.80
2011,04,28,06,56,5.80
2011,04,28,06,57,5.80
2011,04,28,06,58,5.80
2011,04,28,06,59,5.80
2011,04,28,07,00,5.80
2011,04,28,07,01,5.80
2011,04,28,07,02,5.80
2011,04,28,07,03,5.80
2011,04,28,07,04,5.80
2011,04,28,07,05,5.80
2011,04,28,07,06,5.80
2011,04,28,07,07,5.80
2011,04,28,07,08,5.80
2011,04,28,07,09,5.80
2011,04,28,07,10,5.80
2011,04,28,07,11,5.80
2011,04,28,07,12,5.80
2011,04,28,07,13,5.80
2011,04,28,07,14,5.80
2011,04,28,07,15,5.90
2011,04,28,07,16,5.90
2011,04,28,07,17,5.90
2011,04,28,07,18,5.90
2011,04,28,07,19,5.90
2011,04,28,07,20,5.90
2011,04,28,07,21,5.90
2011,04,28,07,22,6.00
2011,04,28,07,23,6.00
2011,04,28,07,24,6.00
2011,04,28,07,25,6.10
2011,04,28,07,26,6.10
2011,04,28,07,27,6.10
2011,04,28,07,28,6.10
2011,04,28,07,29,6.10
2011,04,28,07,30,6.10
2011,04,28,07,31,6.10
2011,04,28,07,32,6.10
2011,04,28,07,33,6.10
2011,04,28,07,34,6.10
2011,04,28,07,35,6.10
2011,04,28,07,36,6.10
2011,04,28,07,37,6.10
2011,04,28,07,38,6.10
2011,04,28,07,39,6.20
2011,04,28,07,40,6.20
2011,04,28,07,41,6.20
2011,04,28,07,42,6.20
2011,04,28,07,43,6.10
2011,04,28,07,44,6.00
2011,04,28,07,45,6.00
2011,04,28,07,46,5.90
2011,04,28,07,47,5.90
2011,04,28,07,48,5.90
2011,04,28,07,49,5.90
2011,04,28,07,50,6.00
2011,04,28,07,51,6.00
2011,04,28,07,52,6.00
2011,04,28,07,53,6.10
2011,04,28,07,54,6.10
2011,04,28,07,55,6.10
2011,04,28,07,56,6.20
2011,04,28,07,57,6.20
2011,04,28,07,58,6.20
2011,04,28,07,59,6.20
2011,04,28,08,00,6.20
2011,04,28,08,01,6.20
2011,04,28,08,02,6.30
2011,04,28,08,03,6.30
2011,04,28,08,04,6.30
2011,04,28,08,05,6.30
2011,04,28,08,06,6.30
2011,04,28,08,07,6.30
2011,04,28,08,08,6.30
2011,04,28,08,09,6.40
2011,04,28,08,10,6.40
2011,04,28,08,11,6.40
2011,04,28,08,12,6.30
2011,04,28,08,13,6.30
2011,04,28,08,14,6.20
2011,04,28,08,15,6.20
2011,04,28,08,16,6.20
2011,04,28,08,17,6.10
2011,04,28,08,18,6.10
2011,04,28,08,19,6.10
2011,04,28,08,20,6.10
2011,04,28,08,21,6.20
2011,04,28,08,22,6.20
2011,04,28,08,23,6.10
2011,04,28,08,24,6.00
2011,04,28,08,25,6.00
2011,04,28,08,26,5.90
2011,04,28,08,27,5.90
2011,04,28,08,28,5.90
2011,04,28,08,29,5.90
2011,04,28,08,30,5.80
2011,04,28,08,31,5.80
2011,04,28,08,32,5.80
2011,04,28,08,33,5.80
2011,04,28,08,34,5.80
2011,04,28,08,35,5.70
2011,04,28,08,36,5.70
2011,04,28,08,37,5.80
2011,04,28,08,38,5.80
2011,04,28,08,39,5.80
2011,04,28,08,40,5.90
2011,04,28,08,41,6.00
2011,04,28,08,42,6.00
2011,04,28,08,43,6.10
2011,04,28,08,44,6.20
2011,04,28,08,45,6.20
2011,04,28,08,46,6.30
2011,04,28,08,47,6.40
2011,04,28,08,48,6.50
2011,04,28,08,49,6.50
2011,04,28,08,50,6.50
2011,04,28,08,51,6.50
2011,04,28,08,52,6.30
2011,04,28,08,53,6.30
2011,04,28,08,54,6.20
2011,04,28,08,55,6.20
2011,04,28,08,56,6.20
2011,04,28,08,57,6.20
2011,04,28,08,58,6.20
2011,04,28,08,59,6.10
2011,04,28,09,00,6.00
2011,04,28,09,01,6.00
2011,04,28,09,02,5.90
2011,04,28,09,03,5.90
2011,04,28,09,04,5.80
2011,04,28,09,05,5.80
2011,04,28,09,06,5.80
2011,04,28,09,07,5.70
2011,04,28,09,08,5.70
2011,04,28,09,09,5.70
2011,04,28,09,10,5.70
2011,04,28,09,11,5.70
2011,04,28,09,12,5.70
2011,04,28,09,13,5.70
2011,04,28,09,14,5.70
2011,04,28,09,15,5.80
2011,04,28,09,16,5.80
2011,04,28,09,17,5.90
2011,04,28,09,18,5.90
2011,04,28,09,19,5.90
2011,04,28,09,20,5.90
2011,04,28,09,21,6.00
2011,04,28,09,22,6.00
2011,04,28,09,23,6.10
2011,04,28,09,24,6.10
2011,04,28,09,25,6.10
2011,04,28,09,26,6.20
2011,04,28,09,27,6.20
2011,04,28,09,28,6.20
2011,04,28,09,29,6.20
2011,04,28,09,30,6.20
2011,04,28,09,31,6.30
2011,04,28,09,32,6.30
2011,04,28,09,33,6.30
2011,04,28,09,34,6.30
2011,04,28,09,35,6.30
2011,04,28,09,36,6.30
2011,04,28,09,37,6.40
2011,04,28,09,38,6.40
2011,04,28,09,39,6.40
2011,04,28,09,40,6.40
2011,04,28,09,41,6.40
2011,04,28,09,42,6.50
2011,04,28,09,43,6.40
2011,04,28,09,44,6.40
2011,04,28,09,45,6.40
2011,04,28,09,46,6.40
2011,04,28,09,47,6.30
2011,04,28,09,48,6.30
2011,04,28,09,49,6.30
2011,04,28,09,50,6.30
2011,04,28,09,51,6.30
2011,04,28,09,52,6.30
2011,04,28,09,53,6.30
2011,04,28,09,54,6.40
2011,04,28,09,55,6.40
2011,04,28,09,56,6.40
2011,04,28,09,57,6.50
2011,04,28,09,58,6.50
2011,04,28,09,59,6.50
2011,04,28,10,00,6.50
2011,04,28,10,01,6.60
2011,04,28,10,02,6.60
2011,04,28,10,03,6.60
2011,04,28,10,04,6.70
2011,04,28,10,05,6.70
2011,04,28,10,06,6.70
2011,04,28,10,07,6.70
2011,04,28,10,08,6.60
2011,04,28,10,09,6.50
2011,04,28,10,10,6.50
2011,04,28,10,11,6.40
2011,04,28,10,12,6.30
2011,04,28,10,13,6.30
2011,04,28,10,14,6.30
2011,04,28,10,15,6.20
2011,04,28,10,16,6.20
2011,04,28,10,17,6.20
2011,04,28,10,18,6.10
2011,04,28,10,19,6.10
2011,04,28,10,20,6.10
2011,04,28,10,21,6.00
2011,04,28,10,22,5.90
2011,04,28,10,23,5.80
2011,04,28,10,24,5.70
2011,04,28,10,25,5.60
2011,04,28,10,26,5.50
2011,04,28,10,27,5.50
2011,04,28,10,28,5.40
2011,04,28,10,29,5.40
2011,04,28,10,30,5.40
2011,04,28,10,31,5.40
2011,04,28,10,32,5.40
2011,04,28,10,33,5.50
2011,04,28,10,34,5.50
2011,04,28,10,35,5.60
2011,04,28,10,36,5.60
2011,04,28,10,37,5.60
2011,04,28,10,38,5.70
2011,04,28,10,39,5.70
2011,04,28,10,40,5.70
2011,04,28,10,41,5.70
2011,04,28,10,42,5.70
2011,04,28,10,43,5.70
2011,04,28,10,44,5.80
2011,04,28,10,45,5.80
2011,04,28,10,46,5.80
2011,04,28,10,47,5.80
2011,04,28,10,48,5.80
2011,04,28,10,49,5.80
2011,04,28,10,50,5.80
2011,04,28,10,51,5.90
2011,04,28,10,52,5.90
2011,04,28,10,53,6.00
2011,04,28,10,54,6.10
2011,04,28,10,55,6.10
2011,04,28,10,56,6.20
2011,04,28,10,57,6.20
2011,04,28,10,58,6.30
2011,04,28,10,59,6.30
2011,04,28,11,00,6.40
2011,04,28,11,01,6.50
2011,04,28,11,02,6.70
2011,04,28,11,03,6.70
2011,04,28,11,04,6.90
2011,04,28,11,05,7.00
2011,04,28,11,06,7.10
2011,04,28,11,07,7.10
2011,04,28,11,08,7.00
2011,04,28,11,09,7.00
2011,04,28,11,10,7.00
2011,04,28,11,11,7.00
2011,04,28,11,12,7.00
2011,04,28,11,13,7.00
2011,04,28,11,14,7.00
2011,04,28,11,15,7.00
2011,04,28,11,16,7.10
2011,04,28,11,17,7.10
2011,04,28,11,18,7.10
2011,04,28,11,19,7.20
2011,04,28,11,20,7.20
2011,04,28,11,21,7.20
2011,04,28,11,22,7.20
2011,04,28,11,23,7.20
2011,04,28,11,24,7.20
2011,04,28,11,25,7.20
2011,04,28,11,26,7.20
2011,04,28,11,27,7.20
2011,04,28,11,28,7.20
2011,04,28,11,29,7.10
2011,04,28,11,30,7.10
2011,04,28,11,31,7.00
2011,04,28,11,32,7.00
2011,04,28,11,33,6.90
2011,04,28,11,34,6.80
2011,04,28,11,35,6.80
2011,04,28,11,36,6.80
2011,04,28,11,37,6.80
2011,04,28,11,38,6.70
2011,04,28,11,39,6.70
2011,04,28,11,40,6.70
2011,04,28,11,41,6.80
2011,04,28,11,42,6.80
2011,04,28,11,43,6.80
2011,04,28,11,44,6.80
2011,04,28,11,45,6.80
2011,04,28,11,46,6.80
2011,04,28,11,47,6.80
2011,04,28,11,48,6.80
2011,04,28,11,49,6.80
2011,04,28,11,50,6.80
2011,04,28,11,51,6.80
2011,04,28,11,52,6.80
2011,04,28,11,53,6.80
2011,04,28,11,54,6.80
2011,04,28,11,55,6.80
2011,04,28,11,56,6.80
2011,04,28,11,57,6.90
2011,04,28,11,58,6.90
2011,04,28,11,59,6.90
2011,04,28,12,00,6.90
2011,04,28,12,01,6.90
2011,04,28,12,02,6.90
2011,04,28,12,03,6.90
2011,04,28,12,04,6.90
2011,04,28,12,05,6.90
2011,04,28,12,06,6.90
2011,04,28,12,07,6.90
2011,04,28,12,08,6.90
2011,04,28,12,09,6.90
2011,04,28,12,10,7.00
2011,04,28,12,11,7.00
2011,04,28,12,12,7.00
2011,04,28,12,13,6.90
2011,04,28,12,14,6.90
2011,04,28,12,15,6.90
2011,04,28,12,16,6.90
2011,04,28,12,17,6.80
2011,04,28,12,18,6.90
2011,04,28,12,19,6.90
2011,04,28,12,20,7.00
2011,04,28,12,21,7.00
2011,04,28,12,22,7.00
2011,04,28,12,23,7.10
2011,04,28,12,24,7.10
2011,04,28,12,25,7.10
2011,04,28,12,26,7.10
2011,04,28,12,27,7.10
2011,04,28,12,28,7.10
2011,04,28,12,29,7.10
2011,04,28,12,30,7.10
2011,04,28,12,31,7.10
2011,04,28,12,32,7.10
2011,04,28,12,33,7.00
2011,04,28,12,34,7.10
2011,04,28,12,35,7.10
2011,04,28,12,36,7.10
2011,04,28,12,37,7.10
2011,04,28,12,38,7.20
2011,04,28,12,39,7.30
2011,04,28,12,40,7.40
2011,04,28,12,41,7.40
2011,04,28,12,42,7.50
2011,04,28,12,43,7.50
2011,04,28,12,44,7.50
2011,04,28,12,45,7.50
2011,04,28,12,46,7.50
2011,04,28,12,47,7.50
2011,04,28,12,48,7.50
2011,04,28,12,49,7.40
2011,04,28,12,50,7.50
2011,04,28,12,51,7.50
2011,04,28,12,52,7.50
2011,04,28,12,53,7.50
2011,04,28,12,54,7.50
2011,04,28,12,55,7.50
2011,04,28,12,56,7.50
2011,04,28,12,57,7.50
2011,04,28,12,58,7.50
2011,04,28,12,59,7.50
2011,04,28,13,00,7.60
2011,04,28,13,01,7.60
2011,04,28,13,02,7.70
2011,04,28,13,03,7.70
2011,04,28,13,04,7.70
2011,04,28,13,05,7.70
2011,04,28,13,06,7.70
2011,04,28,13,07,7.70
2011,04,28,13,08,7.60
2011,04,28,13,09,7.60
2011,04,28,13,10,7.60
2011,04,28,13,11,7.60
2011,04,28,13,12,7.50
2011,04,28,13,13,7.50
2011,04,28,13,14,7.50
2011,04,28,13,15,7.60
2011,04,28,13,16,7.60
2011,04,28,13,17,7.60
2011,04,28,13,18,7.60
2011,04,28,13,19,7.60
2011,04,28,13,20,7.60
2011,04,28,13,21,7.60
2011,04,28,13,22,7.70
2011,04,28,13,23,7.70
2011,04,28,13,24,7.70
2011,04,28,13,25,7.70
2011,04,28,13,26,7.70
2011,04,28,13,27,7.70
2011,04,28,13,28,7.70
2011,04,28,13,29,7.70
2011,04,28,13,30,7.80
2011,04,28,13,31,7.90
2011,04,28,13,32,7.90
2011,04,28,13,33,7.90
2011,04,28,13,34,7.90
2011,04,28,13,35,7.80
2011,04,28,13,36,7.80
2011,04,28,13,37,7.80
2011,04,28,13,38,7.80
2011,04,28,13,39,7.80
2011,04,28,13,40,7.80
2011,04,28,13,41,7.90
2011,04,28,13,42,8.10
2011,04,28,13,43,8.10
2011,04,28,13,44,8.20
2011,04,28,13,45,8.30
2011,04,28,13,46,8.30
2011,04,28,13,47,8.30
2011,04,28,13,48,8.30
2011,04,28,13,49,8.30
2011,04,28,13,50,8.30
2011,04,28,13,51,8.30
2011,04,28,13,52,8.30
2011,04,28,13,53,8.30
2011,04,28,13,54,8.30
2011,04,28,13,55,8.40
2011,04,28,13,56,8.40
2011,04,28,13,57,8.40
2011,04,28,13,58,8.30
2011,04,28,13,59,8.30
2011,04,28,14,00,8.30
2011,04,28,14,01,8.30
2011,04,28,14,02,8.30
2011,04,28,14,03,8.30
2011,04,28,14,04,8.30
2011,04,28,14,05,8.30
2011,04,28,14,06,8.30
2011,04,28,14,07,8.30
2011,04,28,14,08,8.20
2011,04,28,14,09,8.30
2011,04,28,14,10,8.30
2011,04,28,14,11,8.20
2011,04,28,14,12,8.10
2011,04,28,14,13,8.10
2011,04,28,14,14,8.20
2011,04,28,14,15,8.20
2011,04,28,14,16,8.20
2011,04,28,14,17,8.20
2011,04,28,14,18,8.20
2011,04,28,14,19,8.30
2011,04,28,14,20,8.30
2011,04,28,14,21,8.30
2011,04,28,14,22,8.30
2011,04,28,14,23,8.40
2011,04,28,14,24,8.40
2011,04,28,14,25,8.30
2011,04,28,14,26,8.30
2011,04,28,14,27,8.30
2011,04,28,14,28,8.40
2011,04,28,14,29,8.50
2011,04,28,14,30,8.60
2011,04,28,14,31,8.60
2011,04,28,14,32,8.60
2011,04,28,14,33,8.60
2011,04,28,14,34,8.50
2011,04,28,14,35,8.50
2011,04,28,14,36,8.60
2011,04,28,14,37,8.60
2011,04,28,14,38,8.50
2011,04,28,14,39,8.40
2011,04,28,14,40,8.30
2011,04,28,14,41,8.30
2011,04,28,14,42,8.20
2011,04,28,14,43,8.20
2011,04,28,14,44,8.10
2011,04,28,14,45,8.10
2011,04,28,14,46,8.10
2011,04,28,14,47,8.20
2011,04,28,14,48,8.20
2011,04,28,14,49,8.20
2011,04,28,14,50,8.20
2011,04,28,14,51,8.10
2011,04,28,14,52,8.10
2011,04,28,14,53,8.10
2011,04,28,14,54,8.00
2011,04,28,14,55,8.00
2011,04,28,14,56,8.00
2011,04,28,14,57,7.90
2011,04,28,14,58,7.90
2011,04,28,14,59,7.90
2011,04,28,15,00,7.90
2011,04,28,15,01,8.00
2011,04,28,15,02,8.10
2011,04,28,15,03,8.10
2011,04,28,15,04,8.10
2011,04,28,15,05,8.10
2011,04,28,15,06,8.20
2011,04,28,15,07,8.20
2011,04,28,15,08,8.20
2011,04,28,15,09,8.20
2011,04,28,15,10,8.20
2011,04,28,15,11,8.30
2011,04,28,15,12,8.40
2011,04,28,15,13,8.50
2011,04,28,15,14,8.70
2011,04,28,15,15,8.80
2011,04,28,15,16,8.80
2011,04,28,15,17,8.80
2011,04,28,15,18,8.80
2011,04,28,15,19,8.90
2011,04,28,15,20,8.90
2011,04,28,15,21,8.90
2011,04,28,15,22,8.90
2011,04,28,15,23,8.90
2011,04,28,15,24,8.80
2011,04,28,15,25,8.80
2011,04,28,15,26,8.80
2011,04,28,15,27,8.80
2011,04,28,15,28,8.70
2011,04,28,15,29,8.60
2011,04,28,15,30,8.60
2011,04,28,15,31,8.50
2011,04,28,15,32,8.50
2011,04,28,15,33,8.40
2011,04,28,15,34,8.40
2011,04,28,15,35,8.50
2011,04,28,15,36,8.60
2011,04,28,15,37,8.60
2011,04,28,15,38,8.60
2011,04,28,15,39,8.60
2011,04,28,15,40,8.70
2011,04,28,15,41,8.70
2011,04,28,15,42,8.70
2011,04,28,15,43,8.80
2011,04,28,15,44,8.90
2011,04,28,15,45,8.90
2011,04,28,15,46,8.90
2011,04,28,15,47,8.90
2011,04,28,15,48,8.90
2011,04,28,15,49,8.90
2011,04,28,15,50,8.80
2011,04,28,15,51,8.80
2011,04,28,15,52,8.80
2011,04,28,15,53,8.80
2011,04,28,15,54,8.80
2011,04,28,15,55,8.90
2011,04,28,15,56,8.90
2011,04,28,15,57,8.90
2011,04,28,15,58,9.00
2011,04,28,15,59,8.90
2011,04,28,16,00,8.90
2011,04,28,16,01,8.90
2011,04,28,16,02,9.00
2011,04,28,16,03,9.00
2011,04,28,16,04,9.00
2011,04,28,16,05,9.00
2011,04,28,16,06,8.80
2011,04,28,16,07,8.80
2011,04,28,16,08,8.70
2011,04,28,16,09,8.70
2011,04,28,16,10,8.60
2011,04,28,16,11,8.60
2011,04,28,16,12,8.50
2011,04,28,16,13,8.50
2011,04,28,16,14,8.60
2011,04,28,16,15,8.70
2011,04,28,16,16,8.80
2011,04,28,16,17,8.90
2011,04,28,16,18,9.00
2011,04,28,16,19,9.00
2011,04,28,16,20,9.10
2011,04,28,16,21,9.10
2011,04,28,16,22,9.00
2011,04,28,16,23,9.00
2011,04,28,16,24,8.80
2011,04,28,16,25,8.70
2011,04,28,16,26,8.70
2011,04,28,16,27,8.60
2011,04,28,16,28,8.60
2011,04,28,16,29,8.50
2011,04,28,16,30,8.50
2011,04,28,16,31,8.50
2011,04,28,16,32,8.60
2011,04,28,16,33,8.60
2011,04,28,16,34,8.70
2011,04,28,16,35,8.60
2011,04,28,16,36,8.60
2011,04,28,16,37,8.60
2011,04,28,16,38,8.70
2011,04,28,16,39,8.60
2011,04,28,16,40,8.70
2011,04,28,16,41,8.70
2011,04,28,16,42,8.80
2011,04,28,16,43,8.90
2011,04,28,16,44,9.00
2011,04,28,16,45,9.00
2011,04,28,16,46,9.00
2011,04,28,16,47,9.00
2011,04,28,16,48,9.00
2011,04,28,16,49,9.00
2011,04,28,16,50,9.10
2011,04,28,16,51,9.20
2011,04,28,16,52,9.20
2011,04,28,16,53,9.20
2011,04,28,16,54,9.20
2011,04,28,16,55,9.20
2011,04,28,16,56,9.20
2011,04,28,16,57,9.10
2011,04,28,16,58,9.10
2011,04,28,16,59,9.10
2011,04,28,17,00,9.10
2011,04,28,17,01,9.20
2011,04,28,17,02,9.20
2011,04,28,17,03,9.20
2011,04,28,17,04,9.20
2011,04,28,17,05,9.20
2011,04,28,17,06,9.20
2011,04,28,17,07,9.30
2011,04,28,17,08,9.20
2011,04,28,17,09,9.20
2011,04,28,17,10,9.20
2011,04,28,17,11,9.20
2011,04,28,17,12,9.20
2011,04,28,17,13,9.30
2011,04,28,17,14,9.30
2011,04,28,17,15,9.30
2011,04,28,17,16,9.40
2011,04,28,17,17,9.40
2011,04,28,17,18,9.30
2011,04,28,17,19,9.20
2011,04,28,17,20,9.10
2011,04,28,17,21,9.10
2011,04,28,17,22,9.00
2011,04,28,17,23,9.00
2011,04,28,17,24,8.90
2011,04,28,17,25,8.90
2011,04,28,17,26,8.80
2011,04,28,17,27,8.80
2011,04,28,17,28,8.80
2011,04,28,17,29,8.80
2011,04,28,17,30,8.80
2011,04,28,17,31,8.80
2011,04,28,17,32,8.80
2011,04,28,17,33,8.80
2011,04,28,17,34,8.80
2011,04,28,17,35,8.80
2011,04,28,17,36,8.80
2011,04,28,17,37,8.80
2011,04,28,17,38,8.80
2011,04,28,17,39,8.80
2011,04,28,17,40,8.80
2011,04,28,17,41,8.80
2011,04,28,17,42,8.80
2011,04,28,17,43,8.70
2011,04,28,17,44,8.70
2011,04,28,17,45,8.60
2011,04,28,17,46,8.60
2011,04,28,17,47,8.50
2011,04,28,17,48,8.50
2011,04,28,17,49,8.40
2011,04,28,17,50,8.40
2011,04,28,17,51,8.40
2011,04,28,17,52,8.30
2011,04,28,17,53,8.30
2011,04,28,17,54,8.30
2011,04,28,17,55,8.20
2011,04,28,17,56,8.20
2011,04,28,17,57,8.20
2011,04,28,17,58,8.20
2011,04,28,17,59,8.30
2011,04,28,18,00,8.30
2011,04,28,18,01,8.30
2011,04,28,18,02,8.30
2011,04,28,18,03,8.30
2011,04,28,18,04,8.40
2011,04,28,18,05,8.40
2011,04,28,18,06,8.30